sat.trackr.live / text

‹ back to catalog

STARLINK-35066

NORAD 65386 · 2025-191H

PAYLOAD ACTIVE UNKNOWN

§ Identity

Operator
Country
US
Launch date
2025-08-30
Launch site
AFWTR
Launch vehicle
Mass (kg)
RCS (m²)

Purposes: comms

External: N2YO · Heavens-Above · Gunter

§ Orbital elements

Epoch: 2026-05-25T02:56:07.000800Z

Period
95.64 min
Inclination
97.4529°
Eccentricity
0.0001660
Mean motion
15.05659678 rev/d
Perigee alt
548.3 km
Apogee alt
550.6 km
Semi-major
6,927.6 km
B*
3.3721e-4
RAAN
16.5392°
Arg perigee
80.8946°
Mean anomaly
279.2468°
Rev number
4,177

§ Raw data

STARLINK-350661 65386U 25191H   26145.12230325  .00004811  00000+0  33721-3 0  99942 65386  97.4529  16.5392 0001660  80.8946 279.2468 15.05659678 41779

JSON: /api/v1/satellites/65386 · /tle

For live sub-satellite position, see the globe view (requires WebGL).

§ Visibility from observer

Set your observer location to see the next 7 days of passes ≥ 10°. The values pass through the URL so the page stays shareable.

No JS? Fill the form by hand. The geolocation button needs JavaScript.